Showing default

BRO-16, 62654

Orbit data source: Space-Track

BRO-16, 62654 is a payload satellite owned by Unseen Labs (FR) in SSO that was launched on Tue, 14 Jan 2025 UTC via an FALCON 9 launch vehicle from the Air Force Western Test Range (AFWTR). Payload-class satellites include a variety of spacecraft equipped with specific instruments for various scientific and technological missions. These include communications satellites like Starlink; space stations such as the ISS; scientific satellites like the Hubble; Earth observation satellites from companies like Planet Labs, Umbra, and HawkEye 360; GPS; miniature CubeSats for education and research; and military/defense satellites.

Loading next visibility...
Identifier
62654, 2025-009AX
Orbit
SSO
Country
Flag of FRFR
Related business
Manufacturer
GOMSpace
Mission
Operational Commercial Sigint
Bus & Motor
CUBESAT 8U, Unknown motor
Mass
15 kg wet, ~15 kg dry
Launch date (UTC)
2025-01-14 (1 year ago)
Launch vehicle
FALCON 9
Launch site
Air Force Western Test Range (AFWTR)
Object type
Payload
Rocket body
Debris
Shape & HBR
Box, 0.6 m
Radar Cross Section
0.100 m², Medium (>0.1 m² and < 1m²)

Expand to show TLE details & history
Last TLE update: 15 hours ago

TLE from 15 hours ago
0 BRO-16
1 62654U 25009AX  26126.18238388  .00005277  00000-0  22322-3 0  9992
2 62654  97.4053 207.1948 0003596  93.4480 266.7168 15.23627691 72406
Epoch: 2026-05-06T04:22Z
TLE epoch observation values (Epoch: 2026-05-06T04:22:37.967Z)
Latitude
-0.00005°
Longitude
-82.50993°
Altitude
498.147 km
Speed
7.615 km/s
True Right ascension
13h 48m 46s
True Declination
0° 00' 00"
Sunlit
Object was in full shadow at epoch
Visualization orbit readout
Latitude
Unknown
Longitude
Unknown
Altitude
Unknown
Speed
Unknown
Apparent Right ascension
Unknown
Apparent Declination
Unknown
Sunlit
N/A
Visualization observer readout
Local Sidereal Time
03:09:22
Azimuth
Unknown
Elevation
Unknown
Doppler factor
Unknown
Orbital elements
Apogee altitude
494.341 km
Perigee altitude
489.4 km
Semi-major axis
6,870.007 km
Eccentricity
0.00036
Inclination
97.4053°
RAAN
207.1948°
Arg. of periapsis
93.448°
True anomaly
266.67566°
Mean anomaly
266.7168°
Eccentric anomaly
266.69623°
Mean motion
3.8116 °/min
Orbital period
94.45 mins
BSTAR
0.00022322
Loading maneuver chart data...
Computing Atmospheric mass density...
Loading historical data...
Loading historical data...
Loading historical data...
Loading historical data...
Loading historical data...
Loading historical data...
Loading historical data...

Documentation

Showing up to 5 results
|